BAW212 KBOS-EGLL

Flight info

Callsign BAW212
Flight time N/A
Altitude 39000
Route LBSTA8 LBSTA ALLEX N431B ELSIR/M084F400 NATU NETKI/N0483F410 BOFUM Q37 MALUD Q38 NUGRA
Aircraft B772/H-SDE2E3FGHIJ5LORVWXY/LB1D1

Departure

Time 2026-05-04 01:03
Airport Boston Logan International Airport (KBOS)

Arrival

Time N/A
Airport London Heathrow Airport (EGLL)
Time Latitude Longitude Altitude Speed Heading
2026-05-04 00:29 42.37048 -71.02239 30 ft 0 kts 141°
2026-05-04 00:41 42.37054 -71.02245 30 ft 4 kts 141°
2026-05-04 00:41 42.37075 -71.02268 29 ft 4 kts 141°
2026-05-04 00:42 42.37096 -71.02291 28 ft 4 kts 141°
2026-05-04 00:42 42.37116 -71.02313 28 ft 3 kts 141°
2026-05-04 00:42 42.37118 -71.02316 28 ft 0 kts 141°
2026-05-04 00:48 42.37117 -71.02313 29 ft 1 kts 132°
2026-05-04 00:48 42.37118 -71.02298 30 ft 3 kts 84°
2026-05-04 00:48 42.37129 -71.02271 30 ft 3 kts 53°
2026-05-04 00:48 42.37150 -71.02241 30 ft 5 kts 44°
2026-05-04 00:49 42.37183 -71.02201 30 ft 7 kts 41°
2026-05-04 00:49 42.37223 -71.02153 30 ft 8 kts 43°
2026-05-04 00:49 42.37238 -71.02086 30 ft 8 kts 90°
2026-05-04 00:49 42.37232 -71.02014 30 ft 8 kts 96°
2026-05-04 00:50 42.37243 -71.01946 30 ft 8 kts 59°
2026-05-04 00:50 42.37281 -71.01896 30 ft 8 kts 45°
2026-05-04 00:50 42.37290 -71.01829 30 ft 8 kts 108°
2026-05-04 00:50 42.37257 -71.01773 30 ft 8 kts 134°
2026-05-04 00:51 42.37215 -71.01716 30 ft 9 kts 135°
2026-05-04 00:51 42.37165 -71.01649 30 ft 11 kts 135°
2026-05-04 00:51 42.37108 -71.01572 30 ft 12 kts 135°
2026-05-04 00:51 42.37043 -71.01485 30 ft 14 kts 135°
2026-05-04 00:52 42.36974 -71.01393 30 ft 14 kts 135°
2026-05-04 00:52 42.36905 -71.01300 30 ft 14 kts 135°
2026-05-04 00:52 42.36835 -71.01208 30 ft 14 kts 135°
2026-05-04 00:52 42.36756 -71.01142 30 ft 14 kts 173°
2026-05-04 00:53 42.36662 -71.01176 30 ft 14 kts 199°
2026-05-04 00:53 42.36570 -71.01220 30 ft 14 kts 200°
2026-05-04 00:53 42.36478 -71.01265 30 ft 14 kts 200°
2026-05-04 00:53 42.36402 -71.01302 30 ft 10 kts 199°
2026-05-04 00:54 42.36343 -71.01321 30 ft 6 kts 166°
2026-05-04 00:54 42.36319 -71.01280 30 ft 6 kts 121°
2026-05-04 00:54 42.36298 -71.01233 30 ft 6 kts 121°
2026-05-04 00:54 42.36270 -71.01172 30 ft 9 kts 121°
2026-05-04 00:55 42.36240 -71.01085 30 ft 11 kts 114°
2026-05-04 00:55 42.36206 -71.00983 30 ft 12 kts 114°
2026-05-04 00:55 42.36171 -71.00880 30 ft 12 kts 114°
2026-05-04 00:55 42.36137 -71.00777 30 ft 12 kts 112°
2026-05-04 00:56 42.36109 -71.00672 31 ft 12 kts 110°
2026-05-04 00:56 42.36081 -71.00566 30 ft 12 kts 108°
2026-05-04 00:56 42.36054 -71.00458 30 ft 12 kts 108°
2026-05-04 00:56 42.36028 -71.00351 30 ft 12 kts 108°
2026-05-04 00:57 42.36001 -71.00244 30 ft 12 kts 109°
2026-05-04 00:57 42.35973 -71.00139 30 ft 12 kts 112°
2026-05-04 00:57 42.35927 -71.00045 30 ft 12 kts 133°
2026-05-04 00:57 42.35868 -70.99966 30 ft 12 kts 135°
2026-05-04 00:58 42.35809 -70.99886 30 ft 12 kts 135°
2026-05-04 00:58 42.35750 -70.99807 30 ft 12 kts 135°
2026-05-04 00:58 42.35690 -70.99727 30 ft 12 kts 135°
2026-05-04 00:58 42.35631 -70.99648 30 ft 12 kts 135°
2026-05-04 00:59 42.35571 -70.99568 30 ft 12 kts 135°
2026-05-04 00:59 42.35512 -70.99489 30 ft 12 kts 135°
2026-05-04 00:59 42.35491 -70.99387 30 ft 12 kts 76°
2026-05-04 00:59 42.35509 -70.99286 30 ft 8 kts 77°
2026-05-04 01:00 42.35531 -70.99268 30 ft 3 kts 356°
2026-05-04 01:00 42.35549 -70.99281 30 ft 3 kts 327°
2026-05-04 01:00 42.35561 -70.99295 30 ft 0 kts 315°
2026-05-04 01:02 42.35588 -70.99332 23 ft 26 kts 315°
2026-05-04 01:03 42.35900 -70.99751 30 ft 99 kts 315°
2026-05-04 01:03 42.36544 -71.00617 49 ft 157 kts 314°
2026-05-04 01:03 42.37338 -71.01675 683 ft 162 kts 314°
2026-05-04 01:03 42.38148 -71.02729 1634 ft 160 kts 314°
2026-05-04 01:04 42.38846 -71.03949 2096 ft 171 kts 297°
2026-05-04 01:04 42.39388 -71.05394 2605 ft 175 kts 299°
2026-05-04 01:04 42.40006 -71.06864 3061 ft 184 kts 300°
2026-05-04 01:04 42.40659 -71.08405 3492 ft 194 kts 301°
2026-05-04 01:05 42.41589 -71.09760 3837 ft 202 kts 322°
2026-05-04 01:05 42.42846 -71.10695 4319 ft 212 kts 332°
2026-05-04 01:05 42.44241 -71.11495 4782 ft 224 kts 333°
2026-05-04 01:05 42.45723 -71.12311 5186 ft 236 kts 334°
2026-05-04 01:06 42.47272 -71.13154 5703 ft 242 kts 334°
2026-05-04 01:06 42.48858 -71.13987 6278 ft 245 kts 339°
2026-05-04 01:06 42.50577 -71.14120 6758 ft 263 kts
2026-05-04 01:06 42.52253 -71.13006 7444 ft 277 kts 32°
2026-05-04 01:07 42.53561 -71.11031 8023 ft 285 kts 47°
2026-05-04 01:07 42.54729 -71.08840 8549 ft 292 kts 47°
2026-05-04 01:07 42.55920 -71.06599 9281 ft 292 kts 47°
2026-05-04 01:07 42.57121 -71.04335 9910 ft 294 kts 47°
2026-05-04 01:08 42.58321 -71.02079 10276 ft 306 kts 47°
2026-05-04 01:08 42.59615 -70.99663 10465 ft 328 kts 48°
2026-05-04 01:08 42.61013 -70.97057 10646 ft 352 kts 49°
2026-05-04 01:08 42.62483 -70.94308 11121 ft 366 kts 49°
2026-05-04 01:09 42.63995 -70.91475 11836 ft 375 kts 49°
2026-05-04 01:09 42.65532 -70.88590 12804 ft 379 kts 49°
2026-05-04 01:09 42.67089 -70.85667 13765 ft 383 kts 49°
2026-05-04 01:09 42.68668 -70.82707 14592 ft 389 kts 49°
2026-05-04 01:10 42.70269 -70.79706 15452 ft 394 kts 49°
2026-05-04 01:10 42.71888 -70.76667 16342 ft 398 kts 48°
2026-05-04 01:10 42.73505 -70.73631 17229 ft 402 kts 48°
2026-05-04 01:10 42.75157 -70.70527 18099 ft 408 kts 49°
2026-05-04 01:11 42.76834 -70.67374 18845 ft 413 kts 49°
2026-05-04 01:11 42.78531 -70.64180 19617 ft 418 kts 48°
2026-05-04 01:11 42.80238 -70.60960 20421 ft 421 kts 49°
2026-05-04 01:11 42.81893 -70.57682 21199 ft 427 kts 51°
2026-05-04 01:12 42.83526 -70.54254 21946 ft 433 kts 52°
2026-05-04 01:12 42.85156 -70.50759 22701 ft 438 kts 52°
2026-05-04 01:12 42.86802 -70.47213 23434 ft 442 kts 52°
2026-05-04 01:12 42.88440 -70.43694 24013 ft 447 kts 52°
2026-05-04 01:13 42.90121 -70.40099 24566 ft 451 kts 52°
2026-05-04 01:13 42.91829 -70.36459 25097 ft 456 kts 52°
2026-05-04 01:13 42.93551 -70.32794 25594 ft 461 kts 52°
2026-05-04 01:13 42.94699 -70.30354 25913 ft 464 kts 52°
2026-05-04 01:14 42.96451 -70.26626 26423 ft 468 kts 53°
2026-05-04 01:14 42.98797 -70.21633 27018 ft 474 kts 53°
2026-05-04 01:14 43.00586 -70.17820 27447 ft 479 kts 53°
2026-05-04 01:14 43.01779 -70.15272 27738 ft 481 kts 53°
2026-05-04 01:15 43.03594 -70.11394 28157 ft 485 kts 54°
2026-05-04 01:15 43.05420 -70.07486 28557 ft 489 kts 54°
2026-05-04 01:15 43.07259 -70.03543 28946 ft 493 kts 54°
2026-05-04 01:15 43.09109 -69.99574 29319 ft 497 kts 54°
2026-05-04 01:16 43.10980 -69.95553 29649 ft 501 kts 54°
2026-05-04 01:16 43.12859 -69.91510 29946 ft 504 kts 54°
2026-05-04 01:16 43.14744 -69.87447 30192 ft 507 kts 55°
2026-05-04 01:16 43.16639 -69.83359 30434 ft 510 kts 55°
2026-05-04 01:17 43.18544 -69.79241 30670 ft 512 kts 55°
2026-05-04 01:17 43.20430 -69.75161 30894 ft 514 kts 55°
2026-05-04 01:17 43.22346 -69.71010 31179 ft 515 kts 55°
2026-05-04 01:17 43.24257 -69.66861 31481 ft 515 kts 56°
2026-05-04 01:18 43.26176 -69.62692 31801 ft 515 kts 56°
2026-05-04 01:18 43.28092 -69.58522 32087 ft 516 kts 56°
2026-05-04 01:18 43.30007 -69.54350 32376 ft 517 kts 56°
2026-05-04 01:18 43.31920 -69.50176 32689 ft 517 kts 56°
2026-05-04 01:19 43.33835 -69.45992 32971 ft 518 kts 56°
2026-05-04 01:19 43.35756 -69.41788 33266 ft 518 kts 56°
2026-05-04 01:19 43.37667 -69.37600 33593 ft 518 kts 56°
2026-05-04 01:19 43.39559 -69.33448 33881 ft 518 kts 56°
2026-05-04 01:20 43.41496 -69.29191 34137 ft 518 kts 56°
2026-05-04 01:20 43.43385 -69.25036 34408 ft 518 kts 56°
2026-05-04 01:20 43.45296 -69.20823 34651 ft 519 kts 57°
2026-05-04 01:20 43.47208 -69.16604 34899 ft 519 kts 57°
2026-05-04 01:21 43.49118 -69.12382 35153 ft 519 kts 57°
2026-05-04 01:21 43.51027 -69.08157 35409 ft 519 kts 57°
2026-05-04 01:21 43.52932 -69.03934 35650 ft 519 kts 57°
2026-05-04 01:21 43.54843 -68.99693 35879 ft 520 kts 57°
2026-05-04 01:22 43.56725 -68.95508 36117 ft 520 kts 57°
2026-05-04 01:22 43.58630 -68.91268 36329 ft 520 kts 57°
2026-05-04 01:22 43.60535 -68.87021 36562 ft 520 kts 57°
2026-05-04 01:22 43.62444 -68.82759 36781 ft 520 kts 57°
2026-05-04 01:23 43.64343 -68.78511 36988 ft 521 kts 57°
2026-05-04 01:23 43.66250 -68.74242 37204 ft 521 kts 57°
2026-05-04 01:23 43.68149 -68.69983 37432 ft 521 kts 58°
2026-05-04 01:23 43.70052 -68.65710 37619 ft 521 kts 58°
2026-05-04 01:24 43.71952 -68.61436 37821 ft 522 kts 58°
2026-05-04 01:24 43.73852 -68.57155 38004 ft 522 kts 58°
2026-05-04 01:24 43.75725 -68.52930 38195 ft 522 kts 58°
2026-05-04 01:24 43.77629 -68.48630 38368 ft 523 kts 58°
2026-05-04 01:25 43.79527 -68.44336 38528 ft 523 kts 58°
2026-05-04 01:25 43.81428 -68.40027 38636 ft 523 kts 58°
2026-05-04 01:25 43.83329 -68.35713 38671 ft 525 kts 58°
2026-05-04 01:26 43.87108 -68.27121 38725 ft 524 kts 58°
2026-05-04 01:26 43.90900 -68.18469 38729 ft 522 kts 58°
2026-05-04 01:27 43.94639 -68.09915 38727 ft 521 kts 58°
2026-05-04 01:27 43.98397 -68.01292 38719 ft 521 kts 59°
2026-05-04 01:28 44.02146 -67.92662 38722 ft 521 kts 59°
2026-05-04 01:28 44.05880 -67.84043 38717 ft 522 kts 59°
2026-05-04 01:29 44.09626 -67.75368 38704 ft 523 kts 59°
2026-05-04 01:29 44.13366 -67.66682 38704 ft 523 kts 59°
2026-05-04 01:30 44.17086 -67.58018 38703 ft 523 kts 59°
2026-05-04 01:30 44.20799 -67.49341 38695 ft 523 kts 59°
2026-05-04 01:31 44.24529 -67.40600 38685 ft 523 kts 59°
2026-05-04 01:31 44.28255 -67.31840 38682 ft 523 kts 59°
2026-05-04 01:32 44.31942 -67.23144 38673 ft 523 kts 59°
2026-05-04 01:32 44.35649 -67.14376 38668 ft 523 kts 60°
2026-05-04 01:33 44.39345 -67.05607 38658 ft 523 kts 60°
2026-05-04 01:33 44.43028 -66.96888 38647 ft 522 kts 59°
2026-05-04 01:34 44.46846 -66.88210 38631 ft 522 kts 58°
2026-05-04 01:34 44.50666 -66.79617 38614 ft 522 kts 58°
2026-05-04 01:35 44.54490 -66.70949 38599 ft 522 kts 59°
2026-05-04 01:35 44.58291 -66.62264 38581 ft 522 kts 59°
2026-05-04 01:36 44.62056 -66.53619 38569 ft 521 kts 59°
2026-05-04 01:36 44.65838 -66.44909 38561 ft 521 kts 59°
2026-05-04 01:37 44.69597 -66.36232 38557 ft 521 kts 59°
2026-05-04 01:37 44.73359 -66.27520 38558 ft 521 kts 59°
2026-05-04 01:38 44.77120 -66.18786 38559 ft 521 kts 59°
2026-05-04 01:38 44.80874 -66.10040 38558 ft 521 kts 59°
2026-05-04 01:39 44.84600 -66.01334 38552 ft 522 kts 60°
2026-05-04 01:39 44.88345 -65.92555 38552 ft 522 kts 60°
2026-05-04 01:40 44.92083 -65.83764 38543 ft 522 kts 60°
2026-05-04 01:40 44.95818 -65.74955 38536 ft 523 kts 60°
2026-05-04 01:41 44.99552 -65.66120 38527 ft 523 kts 60°
2026-05-04 01:41 45.03255 -65.57330 38512 ft 523 kts 60°
2026-05-04 01:42 45.06973 -65.48479 38498 ft 523 kts 60°
2026-05-04 01:42 45.10686 -65.39611 38482 ft 524 kts 60°
2026-05-04 01:43 45.14394 -65.30726 38468 ft 524 kts 61°
2026-05-04 01:43 45.18102 -65.21815 38454 ft 525 kts 61°
2026-05-04 01:44 45.21784 -65.12935 38444 ft 525 kts 61°
2026-05-04 01:44 45.25483 -65.03988 38439 ft 525 kts 61°
2026-05-04 01:45 45.29170 -64.95041 38427 ft 524 kts 61°
2026-05-04 01:45 45.34690 -64.81594 38407 ft 524 kts 61°
2026-05-04 01:46 45.38331 -64.72687 38394 ft 523 kts 61°
2026-05-04 01:46 45.41969 -64.63761 38386 ft 523 kts 62°
2026-05-04 01:47 45.45615 -64.54785 38380 ft 523 kts 62°
2026-05-04 01:47 45.49257 -64.45788 38362 ft 523 kts 62°
2026-05-04 01:48 45.52887 -64.36795 38346 ft 523 kts 62°
2026-05-04 01:48 45.56484 -64.27853 38332 ft 522 kts 62°
2026-05-04 01:49 45.60092 -64.18855 38323 ft 522 kts 62°
2026-05-04 01:49 45.63702 -64.09824 38307 ft 522 kts 62°
2026-05-04 01:50 45.67300 -64.00794 38297 ft 522 kts 62°
2026-05-04 01:50 45.70885 -63.91764 38291 ft 522 kts 62°
2026-05-04 01:51 45.74444 -63.82774 38276 ft 522 kts 63°
2026-05-04 01:51 45.78021 -63.73707 38276 ft 522 kts 63°
2026-05-04 01:52 45.81592 -63.64625 38267 ft 522 kts 63°
2026-05-04 01:52 45.85151 -63.55543 38258 ft 522 kts 63°
2026-05-04 01:53 45.88706 -63.46444 38251 ft 523 kts 63°
2026-05-04 01:53 45.92239 -63.37370 38244 ft 523 kts 63°
2026-05-04 01:54 45.95769 -63.28272 38236 ft 522 kts 64°
2026-05-04 01:54 45.99300 -63.19142 38230 ft 522 kts 64°
2026-05-04 01:55 46.02814 -63.10027 38232 ft 521 kts 64°
2026-05-04 01:55 46.06330 -63.00874 38233 ft 521 kts 64°
2026-05-04 01:56 46.09804 -62.91802 38228 ft 520 kts 64°
2026-05-04 01:56 46.13292 -62.82661 38224 ft 520 kts 64°
2026-05-04 01:57 46.16779 -62.73492 38209 ft 521 kts 64°
2026-05-04 01:57 46.20258 -62.64316 38191 ft 521 kts 64°
2026-05-04 01:58 46.23712 -62.55174 38184 ft 521 kts 65°
2026-05-04 01:58 46.27184 -62.45950 38176 ft 521 kts 65°
2026-05-04 01:59 46.30639 -62.36745 38168 ft 521 kts 65°
2026-05-04 01:59 46.34071 -62.27567 38168 ft 521 kts 65°
2026-05-04 02:00 46.37515 -62.18327 38174 ft 521 kts 65°
2026-05-04 02:00 46.40955 -62.09064 38177 ft 521 kts 65°
2026-05-04 02:01 46.44368 -61.99842 38169 ft 521 kts 65°
2026-05-04 02:01 46.47795 -61.90554 38162 ft 521 kts 65°
2026-05-04 02:02 46.50634 -61.82833 38148 ft 521 kts 65°
2026-05-04 02:02 46.54037 -61.73549 38134 ft 520 kts 66°
2026-05-04 02:03 46.57436 -61.64244 38121 ft 520 kts 66°
2026-05-04 02:03 46.60805 -61.54988 38099 ft 520 kts 66°
2026-05-04 02:04 46.64182 -61.45681 38079 ft 519 kts 66°
2026-05-04 02:04 46.67549 -61.36366 38066 ft 519 kts 66°
2026-05-04 02:05 46.70903 -61.27053 38071 ft 518 kts 66°
2026-05-04 02:05 46.74247 -61.17738 38081 ft 518 kts 66°
2026-05-04 02:06 46.77559 -61.08479 38101 ft 518 kts 67°
2026-05-04 02:06 46.80887 -60.99143 38140 ft 518 kts 67°
2026-05-04 02:07 46.84211 -60.89784 38191 ft 518 kts 67°
2026-05-04 02:07 46.87505 -60.80478 38226 ft 519 kts 67°
2026-05-04 02:08 46.90818 -60.71088 38255 ft 519 kts 68°
2026-05-04 02:08 46.94121 -60.61691 38264 ft 519 kts 68°
2026-05-04 02:09 46.97416 -60.52281 38266 ft 519 kts 68°
2026-05-04 02:09 47.00686 -60.42912 38260 ft 518 kts 68°
2026-05-04 02:10 47.03955 -60.33512 38262 ft 516 kts 68°
2026-05-04 02:10 47.07203 -60.24138 38277 ft 515 kts 68°
2026-05-04 02:11 47.10448 -60.14739 38283 ft 514 kts 68°
2026-05-04 02:11 47.13655 -60.05414 38288 ft 514 kts 68°
2026-05-04 02:12 47.16878 -59.96010 38296 ft 514 kts 68°
2026-05-04 02:12 47.20069 -59.86666 38306 ft 515 kts 68°
2026-05-04 02:13 47.23296 -59.77183 38314 ft 515 kts 68°
2026-05-04 02:13 47.26486 -59.67776 38323 ft 516 kts 68°
2026-05-04 02:14 47.29690 -59.58293 38328 ft 517 kts 69°
2026-05-04 02:14 47.32890 -59.48790 38338 ft 518 kts 69°
2026-05-04 02:15 47.36088 -59.39251 38346 ft 519 kts 69°
2026-05-04 02:15 47.38589 -59.31769 38355 ft 520 kts 69°
2026-05-04 02:16 47.41765 -59.22239 38366 ft 520 kts 69°
2026-05-04 02:16 47.44954 -59.12633 38376 ft 521 kts 69°
2026-05-04 02:17 47.48141 -59.02994 38387 ft 521 kts 69°
2026-05-04 02:17 47.51302 -58.93401 38395 ft 522 kts 69°
2026-05-04 02:18 47.54477 -58.83729 38405 ft 522 kts 69°
2026-05-04 02:18 47.57643 -58.74049 38413 ft 522 kts 69°
2026-05-04 02:19 47.60801 -58.64356 38425 ft 522 kts 69°
2026-05-04 02:19 47.63950 -58.54651 38450 ft 522 kts 69°
2026-05-04 02:20 47.67089 -58.44943 38455 ft 522 kts 69°
2026-05-04 02:20 47.70204 -58.35271 38460 ft 522 kts 69°
2026-05-04 02:21 47.73332 -58.25522 38470 ft 522 kts 70°
2026-05-04 02:21 47.76444 -58.15785 38479 ft 522 kts 70°
2026-05-04 02:22 47.79556 -58.06010 38486 ft 522 kts 70°
2026-05-04 02:22 47.82631 -57.96314 38503 ft 521 kts 70°
2026-05-04 02:23 47.85722 -57.86532 38511 ft 521 kts 70°
2026-05-04 02:23 47.88799 -57.76755 38522 ft 521 kts 70°
2026-05-04 02:24 47.91865 -57.66975 38531 ft 520 kts 70°
2026-05-04 02:24 47.94919 -57.57195 38541 ft 520 kts 70°
2026-05-04 02:25 47.97944 -57.47473 38563 ft 520 kts 70°
2026-05-04 02:25 48.00981 -57.37670 38555 ft 519 kts 71°
2026-05-04 02:26 48.04004 -57.27875 38571 ft 519 kts 71°
2026-05-04 02:26 48.07021 -57.18061 38574 ft 519 kts 71°
2026-05-04 02:27 48.10016 -57.08283 38580 ft 519 kts 71°
2026-05-04 02:27 48.13019 -56.98434 38572 ft 519 kts 71°
2026-05-04 02:28 48.16011 -56.88584 38582 ft 519 kts 71°
2026-05-04 02:28 48.18973 -56.78799 38581 ft 519 kts 71°
2026-05-04 02:29 48.21951 -56.68918 38592 ft 519 kts 71°
2026-05-04 02:29 48.24901 -56.59090 38593 ft 519 kts 72°
2026-05-04 02:30 48.27860 -56.49191 38600 ft 520 kts 72°
2026-05-04 02:30 48.30815 -56.39268 38604 ft 520 kts 72°
2026-05-04 02:31 48.33760 -56.29338 38618 ft 520 kts 72°
2026-05-04 02:31 48.36688 -56.19424 38618 ft 521 kts 72°
2026-05-04 02:32 48.39625 -56.09441 38632 ft 521 kts 72°
2026-05-04 02:32 48.42555 -55.99441 38642 ft 522 kts 72°
2026-05-04 02:33 48.45457 -55.89494 38639 ft 522 kts 72°
2026-05-04 02:33 48.48375 -55.79453 38647 ft 523 kts 72°
2026-05-04 02:34 48.51286 -55.69391 38657 ft 523 kts 72°
2026-05-04 02:34 48.54180 -55.59348 38660 ft 524 kts 72°
2026-05-04 02:35 48.57083 -55.49230 38668 ft 525 kts 72°
2026-05-04 02:35 48.59981 -55.39090 38669 ft 526 kts 72°
2026-05-04 02:36 48.62876 -55.28917 38697 ft 527 kts 72°
2026-05-04 02:36 48.65748 -55.18781 38691 ft 527 kts 73°
2026-05-04 02:37 48.68632 -55.08563 38706 ft 528 kts 73°
2026-05-04 02:37 48.71506 -54.98333 38712 ft 528 kts 73°
2026-05-04 02:38 48.74376 -54.88070 38722 ft 529 kts 73°
2026-05-04 02:38 48.77239 -54.77792 38726 ft 529 kts 73°
2026-05-04 02:39 48.80100 -54.67477 38718 ft 530 kts 73°
2026-05-04 02:39 48.82940 -54.57189 38730 ft 531 kts 73°
2026-05-04 02:40 48.85793 -54.46810 38730 ft 533 kts 73°
2026-05-04 02:40 48.88623 -54.36470 38734 ft 533 kts 73°
2026-05-04 02:41 48.91467 -54.26032 38744 ft 535 kts 73°
2026-05-04 02:41 48.94308 -54.15560 38757 ft 535 kts 73°
2026-05-04 02:42 48.97144 -54.05061 38770 ft 536 kts 73°
2026-05-04 02:42 48.99971 -53.94548 38773 ft 537 kts 73°
2026-05-04 02:43 49.02781 -53.84046 38774 ft 537 kts 73°
2026-05-04 02:43 49.05596 -53.73480 38780 ft 538 kts 73°
2026-05-04 02:44 49.08407 -53.62881 38785 ft 539 kts 73°
2026-05-04 02:44 49.11216 -53.52241 38771 ft 540 kts 73°
2026-05-04 02:45 49.13999 -53.41651 38786 ft 541 kts 73°
2026-05-04 02:45 49.16796 -53.30956 38779 ft 541 kts 72°
2026-05-04 02:46 49.19583 -53.20253 38785 ft 542 kts 72°
2026-05-04 02:46 49.22361 -53.09531 38786 ft 542 kts 72°
2026-05-04 02:47 49.25115 -52.98855 38785 ft 542 kts 72°
2026-05-04 02:47 49.27878 -52.88092 38795 ft 542 kts 72°
2026-05-04 02:48 49.30167 -52.79135 38797 ft 542 kts 72°
2026-05-04 02:48 49.33351 -52.66616 38804 ft 541 kts 72°
2026-05-04 02:49 49.35620 -52.57655 38808 ft 541 kts 72°
2026-05-04 02:49 49.38340 -52.46864 38813 ft 541 kts 72°
2026-05-04 02:50 49.41051 -52.36057 38813 ft 541 kts 72°
2026-05-04 02:50 49.43737 -52.25297 38819 ft 542 kts 72°
2026-05-04 02:51 49.46430 -52.14456 38825 ft 542 kts 72°
2026-05-04 02:51 49.49103 -52.03649 38832 ft 543 kts 72°
2026-05-04 02:52 49.51825 -51.92794 38835 ft 544 kts 70°
2026-05-04 02:52 49.54657 -51.81968 38833 ft 544 kts 70°
2026-05-04 02:53 49.57471 -51.71208 38837 ft 544 kts 70°
2026-05-04 02:53 49.60273 -51.60362 38840 ft 544 kts 70°
2026-05-04 02:54 49.63053 -51.49505 38846 ft 544 kts 70°
2026-05-04 02:54 49.65821 -51.38637 38847 ft 543 kts 70°
2026-05-04 02:55 49.69946 -51.22351 38853 ft 542 kts 70°
2026-05-04 02:56 49.72686 -51.11474 38856 ft 542 kts 70°
2026-05-04 02:56 49.75398 -51.00652 38863 ft 542 kts 70°
2026-05-04 02:57 49.78114 -50.89763 38868 ft 542 kts 70°
2026-05-04 02:57 49.80818 -50.78871 38869 ft 542 kts 70°
2026-05-04 02:58 49.83509 -50.67975 38871 ft 542 kts 70°
2026-05-04 02:58 49.86180 -50.57105 38881 ft 542 kts 70°
2026-05-04 02:59 49.88859 -50.46152 38882 ft 542 kts 69°
2026-05-04 02:59 49.91527 -50.35191 38889 ft 542 kts 69°
2026-05-04 03:00 49.94162 -50.24309 38893 ft 542 kts 69°
2026-05-04 03:00 49.96811 -50.13314 38900 ft 542 kts 69°
2026-05-04 03:01 49.99444 -50.02335 38893 ft 541 kts 69°
2026-05-04 03:01 50.02102 -49.91458 38896 ft 541 kts 68°
2026-05-04 03:02 50.04861 -49.80564 38907 ft 540 kts 68°
2026-05-04 03:02 50.07612 -49.69683 38915 ft 540 kts 68°
2026-05-04 03:03 50.10326 -49.58819 38920 ft 539 kts 68°
2026-05-04 03:03 50.13026 -49.47915 38918 ft 538 kts 68°
2026-05-04 03:04 50.15696 -49.37071 38924 ft 537 kts 68°
2026-05-04 03:04 50.18372 -49.26155 38929 ft 536 kts 68°
2026-05-04 03:05 50.21024 -49.15290 38935 ft 535 kts 68°
2026-05-04 03:05 50.23666 -49.04413 38939 ft 534 kts 68°
2026-05-04 03:06 50.26271 -48.93633 38945 ft 532 kts 68°
2026-05-04 03:06 50.28868 -48.82833 38945 ft 530 kts 68°
2026-05-04 03:07 50.31452 -48.72035 38950 ft 527 kts 68°
2026-05-04 03:07 50.34009 -48.61295 38957 ft 525 kts 68°
2026-05-04 03:08 50.36532 -48.50646 38971 ft 523 kts 68°
2026-05-04 03:08 50.39049 -48.39969 38968 ft 521 kts 68°
2026-05-04 03:09 50.41537 -48.29365 38972 ft 520 kts 68°
2026-05-04 03:09 50.44031 -48.18682 38974 ft 519 kts 68°
2026-05-04 03:10 50.46505 -48.08032 38991 ft 518 kts 68°
2026-05-04 03:10 50.48963 -47.97396 38987 ft 518 kts 68°
2026-05-04 03:11 50.51393 -47.86831 38988 ft 517 kts 68°
2026-05-04 03:11 50.53833 -47.76170 39002 ft 516 kts 68°
2026-05-04 03:12 50.56256 -47.65529 39011 ft 515 kts 68°
2026-05-04 03:12 50.58648 -47.54970 38997 ft 514 kts 68°
2026-05-04 03:13 50.61042 -47.44349 39012 ft 513 kts 68°
2026-05-04 03:13 50.63420 -47.33746 39016 ft 513 kts 68°
2026-05-04 03:14 50.65771 -47.23210 39018 ft 512 kts 68°
2026-05-04 03:14 50.68126 -47.12605 39034 ft 512 kts 68°
2026-05-04 03:15 50.70470 -47.01992 39030 ft 512 kts 68°
2026-05-04 03:15 50.72796 -46.91409 39041 ft 513 kts 68°
2026-05-04 03:16 50.75130 -46.80737 39042 ft 514 kts 68°
2026-05-04 03:16 50.77454 -46.70050 39050 ft 515 kts 68°
2026-05-04 03:17 50.79777 -46.59315 39056 ft 516 kts 68°
2026-05-04 03:17 50.82081 -46.48614 39060 ft 517 kts 68°
2026-05-04 03:18 50.84397 -46.37796 39070 ft 519 kts 68°
2026-05-04 03:18 50.86693 -46.27014 39075 ft 520 kts 68°
2026-05-04 03:19 50.88999 -46.16130 39080 ft 521 kts 68°
2026-05-04 03:19 50.91283 -46.05291 39082 ft 522 kts 68°
2026-05-04 03:20 50.93575 -45.94357 39087 ft 523 kts 69°
2026-05-04 03:20 50.95864 -45.83371 39091 ft 524 kts 69°
2026-05-04 03:21 50.98136 -45.72413 39100 ft 525 kts 69°
2026-05-04 03:21 51.00417 -45.61349 39107 ft 526 kts 69°
2026-05-04 03:22 51.02675 -45.50334 39109 ft 528 kts 69°
2026-05-04 03:22 51.04946 -45.39197 39114 ft 530 kts 69°
2026-05-04 03:23 51.07213 -45.28012 39122 ft 532 kts 69°
2026-05-04 03:23 51.09465 -45.16841 39130 ft 534 kts 69°
2026-05-04 03:24 51.11728 -45.05547 39137 ft 535 kts 69°
2026-05-04 03:24 51.13973 -44.94281 39143 ft 537 kts 69°
2026-05-04 03:25 51.16221 -44.82930 39148 ft 537 kts 70°
2026-05-04 03:25 51.18461 -44.71556 39149 ft 536 kts 70°
2026-05-04 03:26 51.20679 -44.60221 39150 ft 535 kts 70°
2026-05-04 03:26 51.22884 -44.48894 39155 ft 533 kts 70°
2026-05-04 03:27 51.25059 -44.37648 39163 ft 532 kts 70°
2026-05-04 03:27 51.27227 -44.26377 39169 ft 530 kts 70°
2026-05-04 03:28 51.29370 -44.15167 39174 ft 528 kts 70°
2026-05-04 03:28 51.31504 -44.03939 39183 ft 526 kts 70°
2026-05-04 03:29 51.33618 -43.92746 39187 ft 523 kts 70°
2026-05-04 03:29 51.35695 -43.81691 39194 ft 522 kts 70°
2026-05-04 03:30 51.37771 -43.70571 39199 ft 520 kts 70°
2026-05-04 03:30 51.39832 -43.59469 39198 ft 519 kts 70°
2026-05-04 03:31 51.41878 -43.48376 39200 ft 518 kts 70°
2026-05-04 03:31 51.43899 -43.37359 39207 ft 517 kts 70°
2026-05-04 03:32 51.45920 -43.26268 39220 ft 517 kts 71°
2026-05-04 03:32 51.47916 -43.15250 39234 ft 516 kts 71°
2026-05-04 03:33 51.49912 -43.04166 39227 ft 515 kts 71°
2026-05-04 03:33 51.51883 -42.93154 39232 ft 514 kts 71°
2026-05-04 03:34 51.53850 -42.82096 39234 ft 514 kts 71°
2026-05-04 03:34 51.55803 -42.71052 39239 ft 513 kts 71°
2026-05-04 03:35 51.57731 -42.60076 39243 ft 513 kts 72°